Home > Weather > Kigali > Past weeks

Flag for Rwanda Past Weather in Kigali, Rwanda — Yesterday and Last 2 Weeks

Now
70 °F

Passing clouds.


Feels Like: 70 °F
Forecast: 64 / 75 °F
Wind: 3 mph from Southeast

Location: Kigali Airport

Current Time: May 28, 2016 at 2:23:33 AM

Latest Report: May 28, 2016 at 12:00 AM


Visibility: N/A

Pressure: 30.18 "Hg (25.19 "Hg at 1555m altitude)

Humidity: 69%

Dew Point: 59 °F

Location of KigaliLocation

Past Weather in Kigali — Graph

°F

Kigali Temperature Yesterday

Maximum temperature yesterday: 81 °F (at 2:30 PM)
Minimum temperature yesterday: 64 °F (at 6:30 AM)
Average temperature yesterday: 73 °F

High & Low Weather Summary for the Past Weeks

 TemperatureHumidityPressure
High82 °F (May 25, 3:30 PM)94% (May 17, 4:00 AM)30.30 "Hg (May 17, 4:00 AM)
Low61 °F (May 17, 4:00 AM)40% (May 25, 3:30 PM)30.04 "Hg (May 13, 5:00 PM)
Average72 °F65%30.18 "Hg
* Reported May 13 12:00 AM — May 28 12:00 AM, Kigali, Weather by CustomWeather, © 2016

Note: Actual official high and low records may vary slightly from our data, if they occured in-between our weather recording intervals... More about our weather records

Advertising

Kigali Weather History for the Previous 24 Hours

Scroll right to see more
 ConditionsComfort  
Time TempWeatherWind HumidityBarometerVisibility
12:00 AM
Sat, May 28
70 °FPassing clouds.3 mph69%30.18 "HgN/A
9:30 PM
Fri, May 27
73 °FPassing clouds.3 mph61%30.18 "HgN/A
9:00 PM75 °FPassing clouds.3 mph54%30.15 "HgN/A
7:00 PM75 °FPassing clouds.6 mph54%30.12 "HgN/A
6:00 PM75 °FPassing clouds.3 mph54%30.12 "HgN/A
5:00 PM77 °FScattered clouds.6 mph51%30.09 "HgN/A
2:30 PM81 °FScattered clouds.9 mph45%30.12 "HgN/A
1:30 PM79 °FScattered clouds.6 mph48%30.15 "HgN/A
12:30 PM77 °FScattered clouds.7 mph54%30.18 "HgN/A
11:30 AM77 °FScattered clouds.9 mph54%30.21 "HgN/A
11:00 AM75 °FScattered clouds.8 mph57%30.24 "HgN/A
10:00 AM75 °FScattered clouds.7 mph57%30.24 "HgN/A
9:00 AM73 °FScattered clouds.6 mph65%30.24 "HgN/A
8:00 AM68 °FPartly sunny.No wind78%30.21 "HgN/A
7:00 AM66 °FScattered clouds.2 mph78%30.21 "HgN/A
6:30 AM64 °FScattered clouds.3 mph83%30.18 "HgN/A
3:00 AM68 °FPassing clouds.No wind73%30.15 "HgN/A
2:00 AM68 °FPassing clouds.3 mph73%30.15 "HgN/A
Weather by CustomWeather, © 2016

See weather overviewHow to use our weather pages